HST 1 20580U 90037B 25032.77269642 .00010738 00000-0 43766-3 0 9997 2 20580 28.4674 241.2648 0002816 33.5318 326.5454 15.22797315712006 ISS (ZARYA) 1 25544U 98067A 25032.73245786 .00013805 00000-0 25233-3 0 9999 2 25544 51.6350 257.9368 0003396 260.4392 185.1884 15.49668340494153 CXO 1 25867U 99040B 25034.57271092 .00000777 00000-0 00000+0 0 9997 2 25867 46.4752 136.7449 8617405 306.6835 0.7290 0.37806517 26591